[[{"header":{"parameterUnit":"m.s-1","parameterCategory":1,"la1":30.2991,"la2":30.254,"lo1":-89.0895,"lo2":-89.0444,"dy":0.0017,"dx":0.0017,"nx":28,"ny":28,"refTime":"2024-08-03T09:00:00:Z","depth":0,"parameterNumber":2,"parameterNumberName":"U-component_of_WINDS"},"data":[0,0,0,0,0,0,0,0,0,0,0,0,0,0,0,0,0,0,0,0,0,0,0,0,0,0,0,0,0,0,0,0,0,0,0,0,0,0,0,0,0,0,0,0,0,0,0,0,0,0,0,0,0,0,0,0,0,0,-1.0881,-1.0881,0,-1.0933,-1.0934,-1.0934,-1.1006,-1.1007,-1.1009,-1.101,-1.1059,-1.1059,-1.1059,0,0,0,0,0,0,0,0,0,0,0,0,0,-1.084,-1.084,-1.0881,-1.0881,-1.0882,-1.0933,-1.0934,-1.0934,-1.1006,-1.1007,-1.1009,-1.101,-1.1059,-1.1059,-1.1059,0,0,0,0,0,0,0,0,0,0,0,0,0,-1.0871,-1.084,-1.0881,-1.0924,-1.0928,-1.0933,-1.0934,-1.0935,-1.1006,-1.1007,-1.1009,-1.1011,-1.1059,-1.1059,-1.1059,-1.1024,0,0,-1.106,-1.106,0,0,0,0,0,0,0,0,-1.0869,-1.0872,-1.0917,-1.0921,-1.0926,-1.0965,-1.0937,-1.0964,-1.1005,-1.0976,-1.101,-1.1012,-1.1026,-1.1029,-1.1035,-1.1026,-1.1028,-1.106,-1.106,-1.106,-1.106,0,0,0,0,0,0,0,-1.0867,-1.0871,-1.0901,-1.0917,-1.0923,-1.094,-1.0946,-1.0943,-1.099,-1.0979,-1.0984,-1.099,-1.1029,-1.1034,-1.1036,-1.1029,-1.106,-1.106,-1.106,-1.106,-1.0996,-1.0994,0,0,0,0,0,0,-1.0859,-1.0868,-1.09,-1.0903,-1.0902,-1.0939,-1.0946,-1.0951,-1.099,-1.0998,-1.0988,-1.0993,-1.1033,-1.1036,-1.1038,-1.1,-1.106,-1.106,-1.1061,-1.0998,-1.0995,-1.0993,0,0,0,0,0,0,-1.0858,-1.0861,-1.0898,-1.0887,-1.0893,-1.0938,-1.0942,-1.0951,-1.0956,-1.0997,-1.1006,-1.0985,-1.1034,-1.1038,-1.1028,-1.1003,-1.106,-1.1061,-1.1,-1.0997,-1.0994,-1.0924,0,0,0,0,0,0,-1.0856,-1.086,-1.0848,-1.0886,-1.0893,-1.0887,-1.0941,-1.095,-1.0957,-1.0964,-1.0997,-1.1004,-1.1036,-1.1027,-1.1028,-1.1004,-1.1061,-1.1002,-1.0999,-1.0995,-1.0928,-1.0919,-1.0911,0,0,0,0,0,-1.0854,-1.0824,-1.0847,-1.085,-1.0879,-1.0885,-1.0889,-1.0928,-1.0955,-1.0942,-1.0969,-1.1003,-1.1006,-1.1025,-1.1027,-1.1003,-1.1004,-1.1,-1.0995,-1.0932,-1.0921,-1.0911,0,0,0,0,0,0,-1.0779,-1.083,-1.0855,-1.0837,-1.0857,-1.0897,-1.0883,-1.0914,-1.0925,-1.0931,-1.0977,-1.0984,-1.0968,-1.0985,-1.1005,-1.0972,-1.101,-1.1006,-1.0961,-1.0951,-1.0942,-1.0938,-1.1061,0,0,0,0,0,-1.0761,-1.0763,-1.0807,-1.0787,-1.0795,-1.0837,-1.0841,-1.087,-1.0891,-1.0899,-1.0925,-1.0943,-1.0948,-1.095,-1.0957,-1.0932,-1.094,-1.0916,-1.0907,-1.09,-1.0895,-1.0883,-1.0874,-1.098,-1.098,-1.098,0,0,-1.0723,-1.0751,-1.0749,-1.0772,-1.0791,-1.0791,-1.0843,-1.0841,-1.0841,-1.0898,-1.0891,-1.091,-1.0934,-1.0916,-1.0909,-1.0929,-1.0868,-1.0894,-1.0888,-1.0888,-1.0878,-1.0868,-1.0859,-1.0977,-1.0977,-1.0978,0,0,-1.0653,-1.0674,-1.066,-1.0678,-1.0706,-1.0735,-1.0731,-1.0768,-1.0784,-1.0777,-1.082,-1.0821,-1.0829,-1.0844,-1.0853,-1.079,-1.0822,-1.0791,-1.0744,-1.0732,-1.0724,-1.0717,-1.0695,-1.0686,-1.0787,-1.0787,-1.0787,0,-1.0601,-1.0604,-1.0648,-1.0644,-1.0653,-1.0707,-1.0693,-1.0708,-1.0736,-1.074,-1.0763,-1.0775,-1.0795,-1.0781,-1.0766,-1.0772,-1.0769,-1.0787,-1.0722,-1.0715,-1.0709,-1.0688,-1.068,-1.0783,-1.0783,-1.0784,-1.0784,0,-1.0539,-1.054,-1.0526,-1.0554,-1.0561,-1.0552,-1.0594,-1.0596,-1.0625,-1.065,-1.0643,-1.0669,-1.0683,-1.0682,-1.0709,-1.0673,-1.0684,-1.0714,-1.0753,-1.0694,-1.0676,-1.0668,-1.0777,-1.0779,-1.078,-1.0781,0,0,-1.0421,-1.0476,-1.047,-1.0484,-1.0519,-1.0521,-1.0514,-1.0529,-1.053,-1.0548,-1.0543,-1.0549,-1.0578,-1.0587,-1.0617,-1.0606,-1.0556,-1.0637,-1.0638,-1.0621,-1.0517,-1.0495,-1.0485,-1.0577,-1.0576,-1.0575,-1.0515,0,-1.0358,-1.0351,-1.0391,-1.0373,-1.0375,-1.0427,-1.0421,-1.0442,-1.0466,-1.0471,-1.0497,-1.0501,-1.0538,-1.0545,-1.0537,-1.0563,-1.0535,-1.0568,-1.0572,-1.0572,-1.0564,-1.0475,-1.0451,-1.0393,-1.0508,-1.0507,-1.0506,0,-1.0282,-1.0298,-1.0281,-1.0319,-1.0321,-1.0315,-1.0333,-1.0337,-1.0362,-1.0381,-1.0392,-1.0427,-1.0422,-1.046,-1.0454,-1.0476,-1.048,-1.0493,-1.0492,-1.0493,-1.0535,-1.0473,-1.0376,-1.0367,-1.0495,-1.0496,-1.0497,0,-1.0198,-1.0215,-1.0207,-1.0218,-1.0262,-1.0257,-1.0275,-1.0302,-1.0308,-1.0324,-1.0329,-1.0342,-1.035,-1.0359,-1.0396,-1.0421,-1.0385,-1.0427,-1.04,-1.0399,-1.0389,-1.0389,-1.029,-1.0393,-1.0393,-1.0393,-1.0393,0,-1.0123,-1.0109,-1.0171,-1.0165,-1.0152,-1.02,-1.0185,-1.0208,-1.0232,-1.0231,-1.0277,-1.0275,-1.0325,-1.0328,-1.0357,-1.0348,-1.0351,-1.0365,-1.0372,-1.036,-1.0358,-1.0363,-1.0368,-1.0391,-1.0391,-1.0392,-1.0392,0,-1.0026,-1.0066,-1.0061,-1.0105,-1.0115,-1.0104,-1.014,-1.0137,-1.0165,-1.0164,-1.0166,-1.021,-1.0217,-1.0255,-1.027,-1.029,-1.027,-1.0286,-1.0262,-1.0267,-1.0238,-1.024,-1.0138,-1.0127,-1.0236,-1.0235,-1.0234,0,-0.9975,-0.9966,-1.001,-1.0014,-1.003,-1.0036,-1.0044,-1.009,-1.0096,-1.0125,-1.0118,-1.0129,-1.014,-1.0149,-1.0181,-1.0193,-1.0209,-1.0173,-1.0211,-1.0199,-1.0208,-1.0208,-1.0207,-1.0164,-1.0162,-1.0161,-1.016,0,-0.9879,-0.99,-0.9911,-0.9929,-0.9938,-0.9954,-0.9973,-0.9973,-1.0024,-1.0029,-1.0038,-1.0047,-1.0064,-1.0074,-1.0091,-1.0109,-1.0142,-1.0148,-1.0143,-1.013,-1.0116,-1.0123,-1.0239,-1.015,-1.0151,-1.0152,-1.0152,-1.0153,-0.9804,-0.9799,-0.9829,-0.984,-0.986,-0.9876,-0.9876,-0.9905,-0.9914,-0.9932,-0.9959,-0.9964,-0.999,-1.0018,-1.0033,-1.0037,-1.0056,-1.0048,-1.0045,-1.0042,-1.0036,-1.0116,-1.004,-1.004,-1.0041,-1.0041,-1.0041,0,-0.971,-0.9733,-0.9743,-0.9769,-0.9777,-0.9811,-0.9834,-0.9838,-0.9842,-0.9865,-0.9876,-0.9886,-0.9896,-0.993,-0.9944,-0.9941,-0.9956,-0.9943,-0.9943,-0.9946,-1.0018,-1.0022,-0.993,-0.993,-0.993,-0.993,-0.993,-0.993,-0.9663,-0.9657,-0.9682,-0.9686,-0.9709,-0.9716,-0.9726,-0.9742,-0.976,-0.977,-0.978,-0.9803,-0.9829,-0.9846,-0.9857,-0.9866,-0.9869,-0.985,-0.9864,-0.993,-0.9941,-0.9951,-0.9955,-0.985,-0.985,-0.9792,-0.9791,-0.9791]},{"header":{"parameterUnit":"m.s-1","parameterCategory":1,"la1":30.2991,"la2":30.254,"lo1":-89.0895,"lo2":-89.0444,"dy":0.0017,"dx":0.0017,"nx":28,"ny":28,"refTime":"2024-08-03T09:00:00:Z","depth":0,"parameterNumber":3,"parameterNumberName":"V-component_of_WINDS"},"data":[0,0,0,0,0,0,0,0,0,0,0,0,0,0,0,0,0,0,0,0,0,0,0,0,0,0,0,0,0,0,0,0,0,0,0,0,0,0,0,0,0,0,0,0,0,0,0,0,0,0,0,0,0,0,0,0,0,0,2.5988,2.5986,0,2.58,2.5798,2.5796,2.5592,2.5589,2.5586,2.5583,2.5387,2.5385,2.5382,0,0,0,0,0,0,0,0,0,0,0,0,0,2.6165,2.6163,2.5988,2.5986,2.5983,2.5801,2.5798,2.5796,2.5592,2.5589,2.5585,2.5582,2.5388,2.5385,2.5382,0,0,0,0,0,0,0,0,0,0,0,0,0,2.6044,2.6163,2.5988,2.586,2.5847,2.5801,2.5798,2.5795,2.5593,2.5589,2.5584,2.558,2.5389,2.5385,2.5382,2.5447,0,0,2.537,2.5369,0,0,0,0,0,0,0,0,2.6052,2.6038,2.5881,2.5869,2.5854,2.5715,2.5789,2.5678,2.5594,2.5689,2.5583,2.5578,2.55,2.5487,2.5461,2.5437,2.5429,2.537,2.5368,2.5366,2.5365,0,0,0,0,0,0,0,2.606,2.6045,2.5913,2.5879,2.5862,2.581,2.5788,2.5767,2.5621,2.5681,2.5665,2.5646,2.5491,2.5465,2.5455,2.5426,2.537,2.5367,2.5364,2.5363,2.5445,2.5449,0,0,0,0,0,0,2.6089,2.6053,2.5919,2.5908,2.5944,2.5811,2.5786,2.5764,2.5621,2.5595,2.565,2.5637,2.5474,2.5459,2.5447,2.5513,2.5366,2.5363,2.536,2.544,2.5446,2.545,0,0,0,0,0,0,2.6093,2.6079,2.5927,2.5976,2.5953,2.5812,2.5789,2.5763,2.5736,2.5598,2.557,2.565,2.5469,2.5452,2.5448,2.5503,2.5361,2.5358,2.5435,2.5442,2.5448,2.5646,0,0,0,0,0,0,2.6099,2.6082,2.6106,2.5979,2.5951,2.5933,2.5793,2.5762,2.5731,2.5712,2.5591,2.5566,2.5465,2.5455,2.5445,2.5495,2.5355,2.5429,2.5438,2.5446,2.5634,2.5658,2.5679,0,0,0,0,0,2.6106,2.6168,2.6108,2.6093,2.5979,2.5937,2.5921,2.5804,2.5736,2.5758,2.5669,2.557,2.5499,2.5456,2.5443,2.5493,2.5425,2.5436,2.5445,2.5623,2.5653,2.5679,0,0,0,0,0,0,2.6304,2.6149,2.6081,2.6104,2.6036,2.5903,2.5927,2.584,2.5788,2.5773,2.5628,2.5602,2.5615,2.5553,2.5508,2.5548,2.5448,2.5456,2.5588,2.5615,2.5638,2.5652,2.5352,0,0,0,0,0,2.6351,2.6331,2.6196,2.6229,2.6199,2.607,2.6047,2.5963,2.5885,2.5855,2.5765,2.5693,2.5653,2.5631,2.5587,2.5624,2.5593,2.5652,2.5675,2.5694,2.5702,2.5716,2.574,2.5483,2.5483,2.5483,0,0,2.6447,2.6359,2.6355,2.6267,2.6204,2.6185,2.6046,2.6033,2.6017,2.5852,2.5843,2.5775,2.5684,2.5701,2.5704,2.565,2.5767,2.5707,2.5723,2.572,2.5729,2.5753,2.5775,2.549,2.5488,2.5487,0,0,2.6611,2.6544,2.6564,2.6504,2.6411,2.6324,2.633,2.621,2.6159,2.6148,2.6024,2.6002,2.5938,2.5878,2.584,2.5982,2.5888,2.5972,2.6091,2.6106,2.6126,2.6143,2.6194,2.6213,2.598,2.5981,2.5981,0,2.6741,2.671,2.6585,2.6579,2.6543,2.6394,2.6413,2.636,2.6257,2.6235,2.6177,2.6093,2.6022,2.6022,2.6057,2.603,2.6031,2.5985,2.6134,2.615,2.6164,2.621,2.6229,2.5992,2.599,2.5989,2.5988,0,2.6874,2.6854,2.6881,2.6787,2.6754,2.6761,2.6635,2.6617,2.6536,2.6455,2.6445,2.6354,2.629,2.6283,2.6203,2.6272,2.6241,2.6161,2.6057,2.6201,2.6242,2.6259,2.6007,2.6003,2.6,2.5997,0,0,2.7158,2.6995,2.7007,2.6962,2.6849,2.683,2.6829,2.6767,2.6754,2.6687,2.6682,2.6632,2.6556,2.6513,2.6424,2.6438,2.6555,2.6354,2.635,2.6395,2.6624,2.6686,2.6709,2.6493,2.6496,2.6498,2.6632,0,2.7302,2.7293,2.7181,2.7203,2.7182,2.704,2.7039,2.6969,2.6894,2.6864,2.6779,2.6746,2.6649,2.6622,2.6629,2.654,2.66,2.6529,2.6485,2.6485,2.6513,2.673,2.6795,2.6925,2.6647,2.665,2.6652,0,2.7469,2.7415,2.7436,2.7321,2.7308,2.731,2.7243,2.7217,2.7133,2.7077,2.703,2.693,2.6919,2.6823,2.6805,2.676,2.6735,2.6689,2.6691,2.6682,2.6577,2.6726,2.6964,2.6984,2.6676,2.6674,2.6672,0,2.7674,2.7606,2.7609,2.7575,2.7441,2.7446,2.739,2.7302,2.7272,2.7213,2.7192,2.7133,2.7101,2.7057,2.6943,2.6884,2.6939,2.6833,2.6891,2.6894,2.6908,2.6909,2.7146,2.6894,2.6894,2.6894,2.6893,0,2.7847,2.7865,2.7699,2.7701,2.7717,2.7587,2.7605,2.7535,2.7459,2.7444,2.7317,2.7305,2.7157,2.7128,2.7039,2.7037,2.7024,2.6977,2.6953,2.6988,2.6995,2.697,2.6958,2.6899,2.6898,2.6897,2.6896,0,2.8078,2.7968,2.7962,2.7836,2.7805,2.7822,2.7714,2.771,2.7627,2.761,2.7598,2.7468,2.7427,2.731,2.7239,2.7178,2.7203,2.7158,2.7232,2.7216,2.7281,2.7277,2.751,2.7533,2.7269,2.7272,2.7274,0,2.8195,2.8206,2.8082,2.8064,2.8014,2.7986,2.7954,2.7826,2.7799,2.7704,2.7712,2.7661,2.7614,2.7555,2.7453,2.7398,2.735,2.7436,2.7341,2.7376,2.7351,2.7352,2.7352,2.7457,2.746,2.7463,2.7465,0,2.8415,2.836,2.8321,2.8263,2.8229,2.8177,2.8117,2.8109,2.7965,2.794,2.7898,2.7862,2.7789,2.774,2.7669,2.7609,2.7514,2.7496,2.7506,2.7542,2.7585,2.7562,2.7288,2.7491,2.7489,2.7487,2.7485,2.7484,2.8592,2.8595,2.8508,2.8468,2.841,2.8357,2.8347,2.8264,2.8227,2.8159,2.8085,2.8051,2.7966,2.786,2.7808,2.7778,2.7727,2.7743,2.7746,2.7752,2.7768,2.759,2.7765,2.7764,2.7763,2.7762,2.7761,0,2.8804,2.8742,2.8707,2.8628,2.8597,2.851,2.844,2.8419,2.8391,2.832,2.8277,2.8228,2.8179,2.8074,2.8016,2.8012,2.7967,2.8001,2.8,2.7987,2.7817,2.7814,2.8039,2.8039,2.8039,2.8039,2.8039,2.8039,2.8912,2.8912,2.8847,2.8816,2.8752,2.8719,2.8686,2.8636,2.8579,2.8531,2.8491,2.8423,2.8338,2.8272,2.8224,2.8194,2.8178,2.8227,2.8183,2.8026,2.7999,2.7974,2.797,2.8225,2.8225,2.8355,2.8356,2.8357]}]]